FW8671 Weather Reports


Display with metric or nautical units.
time (UTC)temp
F
wind
direction
speed
MPH
gust
MPH
rain 1hr
in
rain 24hr
in
rain mn
in
humidity
%
barometer
mb
20260506182312 57 223 9.0 21.0 0.00 0.03 0.03 93 1010.9
20260506181254 57 223 9.0 21.0 0.00 0.03 0.03 93 1011.2
20260506180310 57 193 8.0 17.0 0.05 0.03 0.03 93 1011.3
20260506175318 57 204 9.0 22.0 0.04 0.02 0.02 93 1011.3
20260506174341 57 238 9.0 22.0 0.04 0.02 0.02 93 1011.5
20260506173406 57 214 9.0 22.0 0.00 0.01 0.01 92 1011.5
20260506172354 57 219 10.0 25.0 0.00 0.00 0.00 92 1011.7
20260506165137 58 201 10.0 21.0 0.00 0.00 0.00 89 1012.2
20260506162959 58 241 10.0 26.0 0.00 0.00 0.00 89 1012.3
20260506162019 58 219 11.0 24.0 0.00 0.00 0.00 88 1012.2
20260506161016 58 193 12.0 24.0 0.00 0.00 0.00 88 1012.3
20260506160038 58 231 10.0 21.0 0.00 0.00 0.00 88 1012.5
20260506155049 59 205 10.0 22.0 0.00 0.00 0.00 88 1012.6
20260506154109 59 205 10.0 22.0 0.00 0.00 0.00 88 1012.8
20260506153047 59 249 11.0 22.0 0.00 0.00 0.00 87 1012.9
20260506152100 59 176 12.0 23.0 0.00 0.00 0.00 88 1012.8
20260506151038 59 207 11.0 23.0 0.00 0.00 0.00 87 1012.8
20260506150055 59 240 10.0 21.0 0.00 0.00 0.00 88 1012.6
20260506145111 59 200 10.0 24.0 0.00 0.00 0.00 88 1012.6
20260506144124 59 215 9.0 24.0 0.00 0.00 0.00 88 1012.7
20260506141949 59 206 10.0 22.0 0.00 0.00 0.00 87 1013.2
20260506140915 60 219 11.0 23.0 0.00 0.00 0.00 87 1013.2
20260506135844 59 167 10.0 23.0 0.00 0.00 0.00 87 1013.2
20260506134827 59 235 9.0 19.0 0.00 0.00 0.00 88 1013.4
20260506133832 59 227 11.0 22.0 0.00 0.00 0.00 88 1013.5
20260506132815 59 223 10.0 20.0 0.00 0.00 0.00 88 1013.3
20260506131805 59 210 8.0 19.0 0.00 0.00 0.00 88 1013.4
20260506125724 58 242 9.0 23.0 0.00 0.00 0.00 89 1013.2
20260506124724 58 215 10.0 25.0 0.00 0.00 0.00 89 1013.1
20260506122622 59 213 9.0 20.0 0.00 0.00 0.00 89 1013.5
20260506121603 58 236 10.0 21.0 0.00 0.00 0.00 89 1013.7
20260506120600 58 209 11.0 21.0 0.00 0.00 0.00 89 1013.6
20260506115551 58 240 10.0 21.0 0.00 0.00 0.00 89 1013.4
20260506114525 58 211 9.0 20.0 0.00 0.00 0.00 90 1013.3
20260506112407 57 191 7.0 17.0 0.00 0.00 0.00 91 1013.3
20260506111404 57 213 7.0 18.0 0.00 0.00 0.00 91 1013.5
20260506110409 57 226 6.0 19.0 0.00 0.00 0.00 91 1013.4
20260506105348 57 240 8.0 19.0 0.00 0.00 0.00 91 1013.3
20260506104329 57 222 8.0 18.0 0.00 0.00 0.00 91 1013.3
20260506103344 57 231 8.0 21.0 0.00 0.00 0.00 91 1013.2
20260506102331 57 233 8.0 21.0 0.00 0.00 0.00 92 1013.2
20260506101351 57 219 7.0 19.0 0.00 0.00 0.00 92 1013.1
20260506100410 57 216 9.0 19.0 0.00 0.00 0.00 91 1013.2
20260506095411 57 264 8.0 16.0 0.00 0.00 0.00 91 1013.2
20260506094433 57 232 8.0 16.0 0.00 0.00 0.00 91 1013.3
20260506093410 57 224 7.0 18.0 0.00 0.00 0.00 92 1013.1
20260506092350 57 199 7.0 18.0 0.00 0.00 0.00 91 1013.2
20260506091355 57 225 7.0 16.0 0.00 0.00 0.00 91 1013.3
20260506090402 57 256 7.0 22.0 0.00 0.00 0.00 91 1013.5
20260506085358 57 340 7.0 22.0 0.00 0.00 0.00 91 1013.4
20260506084352 57 260 8.0 18.0 0.00 0.00 0.00 91 1013.6
20260506083342 57 207 9.0 19.0 0.00 0.00 0.00 91 1013.5
20260506072939 57 236 10.0 20.0 0.00 0.00 0.00 89 1013.8
20260506071939 57 225 9.0 23.0 0.00 0.00 0.00 89 1013.9
20260506070927 58 221 11.0 23.0 0.00 0.00 0.00 89 1013.9
20260506062026 58 201 10.0 23.0 0.00 0.00 0.00 87 1013.7
20260506060955 58 244 10.0 22.0 0.00 0.00 0.00 87 1013.8
20260506050719 59 234 9.0 20.0 0.00 0.00 0.00 86 1014.0
20260506044706 59 255 12.0 26.0 0.00 0.00 0.00 86 1013.9
20260506042527 59 227 10.0 24.0 0.00 0.00 0.00 86 1014.0
20260506041535 59 229 9.0 23.0 0.00 0.00 0.00 85 1013.9
20260506035340 58 245 9.0 23.0 0.00 0.00 0.00 85 1014.1
20260506034340 58 232 9.0 25.0 0.00 0.00 0.00 86 1014.2
20260506033319 58 228 8.0 25.0 0.00 0.00 0.00 85 1014.1
20260506032258 58 279 10.0 24.0 0.00 0.00 0.00 85 1014.1
20260506031244 58 245 10.0 24.0 0.00 0.00 0.00 85 1014.1
20260506030227 58 215 10.0 22.0 0.00 0.00 0.00 85 1014.2
20260506025209 59 215 9.0 21.0 0.00 0.00 0.00 85 1014.1
20260506024146 59 207 9.0 20.0 0.00 0.00 0.00 85 1014.1
20260506023114 59 263 8.0 19.0 0.00 0.00 0.00 85 1014.2
20260506022055 59 217 9.0 18.0 0.00 0.00 0.00 85 1014.3
20260506021024 59 0 10.0 23.0 0.00 0.00 0.00 84 1014.2
20260506014945 59 236 10.0 23.0 0.00 0.00 0.00 84 1013.9
20260506013939 59 213 9.0 19.0 0.00 0.00 0.00 84 1013.9
20260506010658 60 234 12.0 26.0 0.00 0.00 0.00 82 1013.4
20260506005630 60 217 12.0 25.0 0.00 0.00 0.00 82 1013.5
20260506004644 60 215 12.0 28.0 0.00 0.00 0.00 81 1013.4
20260506002520 60 227 12.0 26.0 0.00 0.00 0.00 81 1013.1
20260506001512 60 340 14.0 30.0 0.00 0.00 0.00 81 1013.1
20260506000502 60 339 12.0 30.0 0.00 0.00 0.00 81 1012.9
20260505235521 60 236 12.0 27.0 0.00 0.00 0.00 82 1012.9
20260505234502 60 209 12.0 29.0 0.00 0.00 0.00 81 1012.5
20260505233436 60 178 13.0 29.0 0.00 0.00 0.00 81 1012.3
20260505230250 60 242 11.0 30.0 0.00 0.00 0.00 81 1012.1
20260505225240 60 203 12.0 30.0 0.00 0.00 0.00 81 1011.9
20260505223114 61 204 12.0 28.0 0.00 0.00 0.00 80 1011.9
20260505222134 61 248 13.0 28.0 0.00 0.00 0.00 80 1011.9
20260505221114 61 209 12.0 28.0 0.00 0.00 0.00 79 1011.7
20260505220104 61 208 12.0 25.0 0.00 0.00 0.00 79 1011.8
20260505215032 61 230 13.0 29.0 0.00 0.00 0.00 79 1011.7
20260505212900 62 182 14.0 30.0 0.00 0.00 0.00 79 1011.4
20260505211907 62 198 14.0 30.0 0.00 0.00 0.00 78 1011.4
20260505210856 62 238 13.0 27.0 0.00 0.00 0.00 79 1011.3
20260505204729 62 218 12.0 27.0 0.00 0.00 0.00 78 1011.3
20260505203736 62 200 12.0 24.0 0.00 0.00 0.00 78 1011.2
20260505202702 62 103 10.0 22.0 0.00 0.00 0.00 77 1011.3
20260505201718 63 238 7.0 19.0 0.00 0.00 0.00 77 1011.4
20260505200736 62 258 8.0 19.0 0.00 0.00 0.00 79 1011.5
20260505195743 62 227 7.0 19.0 0.00 0.00 0.00 79 1011.9
20260505194725 61 183 9.0 19.0 0.00 0.00 0.00 80 1012.0
20260505193712 61 225 9.0 19.0 0.00 0.00 0.00 80 1012.1
20260505190424 62 235 10.0 20.0 0.00 0.00 0.00 80 1012.6
20260505185358 62 200 9.0 21.0 0.00 0.00 0.00 80 1012.8
20260505184328 61 224 9.0 21.0 0.00 0.00 0.00 82 1013.0